When you browse on this site, cookies collect data to enhance your experience and personalize the content and advertising you see.
Visit our Privacy Policy to learn more. By continuing to use the site, you agree to this use of cookies and data.
  • In Czech Republic
  • List of Countries
  • For 7 days
  • Water Temperature
  • Weather Map
  • Weather Widgets
  • user-avatar
    Login

    Hourly Weather Ignacovka

    Today, 29 May, Friday

    Time Temperature Precipitation Wind Pressure Humidity
    00:00 +12°C° 0.2 mm 2 mps 749 mmHg 91%
    01:00 +12°C° 0.2 mm 2 mps 748 mmHg 92%
    02:00 +12°C° 0 mm 1 mps 748 mmHg 93%
    03:00 +12°C° 1.3 mm 2 mps 748 mmHg 94%
    04:00 +10°C° 1.3 mm 2 mps 747 mmHg 95%
    05:00 +10°C° 1.3 mm 3 mps 747 mmHg 97%
    06:00 +11°C° 1.2 mm 3 mps 747 mmHg 96%
    07:00 +11°C° 1.2 mm 4 mps 747 mmHg 96%
    08:00 +10°C° 1.2 mm 5 mps 747 mmHg 96%
    09:00 +10°C° 0.3 mm 5 mps 747 mmHg 95%
    10:00 +10°C° 0.3 mm 5 mps 747 mmHg 94%
    11:00 +10°C° 0.3 mm 6 mps 747 mmHg 93%
    12:00 +10°C° 0.2 mm 6 mps 747 mmHg 92%
    13:00 +11°C° 0.2 mm 6 mps 746 mmHg 91%
    14:00 +11°C° 0.2 mm 6 mps 746 mmHg 90%
    15:00 +11°C° 0 mm 6 mps 746 mmHg 88%
    16:00 +11°C° 0 mm 6 mps 746 mmHg 87%
    17:00 +13°C° 0 mm 6 mps 746 mmHg 85%
    18:00 +11°C° 0 mm 6 mps 745 mmHg 85%
    19:00 +11°C° 0 mm 6 mps 745 mmHg 85%
    20:00 +11°C° 0 mm 6 mps 745 mmHg 85%
    21:00 +11°C° 0 mm 6 mps 745 mmHg 85%
    22:00 +12°C° 0 mm 5 mps 744 mmHg 85%
    23:00 +13°C° 0 mm 5 mps 744 mmHg 84%

    Tomorrow, 30 May, Saturday

    Time Temperature Precipitation Wind Pressure Humidity
    00:00 +13°C° 0 mm 6 mps 744 mmHg 84%
    01:00 +13°C° 0 mm 6 mps 744 mmHg 84%
    02:00 +13°C° 0 mm 6 mps 743 mmHg 85%
    03:00 +11°C° 0.1 mm 6 mps 743 mmHg 87%
    04:00 +11°C° 0.1 mm 6 mps 743 mmHg 89%
    05:00 +11°C° 0.1 mm 6 mps 742 mmHg 91%
    06:00 +11°C° 0.3 mm 6 mps 742 mmHg 92%
    07:00 +11°C° 0.3 mm 6 mps 742 mmHg 94%
    08:00 +11°C° 0.3 mm 6 mps 742 mmHg 95%
    09:00 +12°C° 0.2 mm 7 mps 742 mmHg 94%
    10:00 +12°C° 0.2 mm 7 mps 741 mmHg 94%
    11:00 +12°C° 0.2 mm 7 mps 741 mmHg 93%
    12:00 +12°C° 0.1 mm 7 mps 741 mmHg 93%
    13:00 +12°C° 0.1 mm 7 mps 740 mmHg 92%
    14:00 +12°C° 0.1 mm 7 mps 740 mmHg 91%
    15:00 +14°C° 1.1 mm 7 mps 739 mmHg 93%
    16:00 +14°C° 1.1 mm 7 mps 739 mmHg 94%
    17:00 +14°C° 1.1 mm 7 mps 738 mmHg 96%
    18:00 +13°C° 2.1 mm 8 mps 738 mmHg 95%
    19:00 +15°C° 2.1 mm 8 mps 737 mmHg 94%
    20:00 +15°C° 2.1 mm 9 mps 737 mmHg 93%
    21:00 +15°C° 1.4 mm 9 mps 737 mmHg 93%
    22:00 +15°C° 1.4 mm 9 mps 737 mmHg 93%
    23:00 +15°C° 1.4 mm 9 mps 737 mmHg 94%

    Day after tomorrow, 31 May, Sunday

    Time Temperature Precipitation Wind Pressure Humidity
    00:00 +15°C° 0.3 mm 7 mps 737 mmHg 94%
    01:00 +14°C° 0.3 mm 6 mps 738 mmHg 95%
    02:00 +14°C° 0.3 mm 4 mps 738 mmHg 96%
    03:00 +13°C° 0.4 mm 4 mps 739 mmHg 96%
    04:00 +13°C° 0.4 mm 4 mps 739 mmHg 97%
    05:00 +13°C° 0.4 mm 4 mps 740 mmHg 97%
    06:00 +13°C° 1.1 mm 4 mps 740 mmHg 97%
    07:00 +13°C° 1.1 mm 5 mps 741 mmHg 96%
    08:00 +13°C° 1.1 mm 5 mps 741 mmHg 96%
    09:00 +13°C° 0.6 mm 6 mps 742 mmHg 95%
    10:00 +13°C° 0.6 mm 6 mps 742 mmHg 94%
    11:00 +12°C° 0.6 mm 7 mps 742 mmHg 93%
    12:00 +12°C° 0.1 mm 7 mps 743 mmHg 91%
    13:00 +12°C° 0.1 mm 7 mps 743 mmHg 90%
    14:00 +12°C° 0.1 mm 7 mps 744 mmHg 89%
    15:00 +12°C° 0 mm 7 mps 744 mmHg 85%
    16:00 +12°C° 0 mm 8 mps 744 mmHg 82%
    17:00 +13°C° 0 mm 8 mps 745 mmHg 78%
    18:00 +12°C° 0 mm 7 mps 745 mmHg 77%
    19:00 +13°C° 0 mm 6 mps 746 mmHg 76%
    20:00 +13°C° 0 mm 5 mps 746 mmHg 75%
    21:00 +12°C° 0 mm 5 mps 747 mmHg 80%
    22:00 +11°C° 0 mm 4 mps 747 mmHg 84%
    23:00 +10°C° 0 mm 4 mps 748 mmHg 89%

    1 June, Monday

    Time Temperature Precipitation Wind Pressure Humidity
    00:00 +10°C° 0 mm 4 mps 748 mmHg 87%
    01:00 +8°C° 0 mm 4 mps 748 mmHg 85%
    02:00 +8°C° 0 mm 4 mps 749 mmHg 82%
    03:00 +8°C° 0 mm 4 mps 749 mmHg 81%
    04:00 +7°C° 0 mm 4 mps 749 mmHg 80%
    05:00 +7°C° 0 mm 4 mps 749 mmHg 79%
    06:00 +8°C° 0 mm 5 mps 750 mmHg 73%
    07:00 +9°C° 0 mm 5 mps 750 mmHg 67%
    08:00 +11°C° 0 mm 6 mps 751 mmHg 61%
    09:00 +11°C° 0 mm 6 mps 751 mmHg 58%
    10:00 +13°C° 0 mm 6 mps 751 mmHg 56%
    11:00 +14°C° 0 mm 6 mps 751 mmHg 54%
    12:00 +14°C° 0 mm 6 mps 751 mmHg 54%
    13:00 +14°C° 0 mm 5 mps 751 mmHg 55%
    14:00 +14°C° 0 mm 5 mps 750 mmHg 56%
    15:00 +14°C° 0 mm 5 mps 750 mmHg 56%
    16:00 +14°C° 0 mm 4 mps 750 mmHg 57%
    17:00 +14°C° 0 mm 4 mps 750 mmHg 57%
    18:00 +12°C° 0 mm 4 mps 750 mmHg 63%
    19:00 +11°C° 0 mm 3 mps 750 mmHg 69%
    20:00 +10°C° 0 mm 2 mps 750 mmHg 75%
    21:00 +9°C° 0 mm 2 mps 751 mmHg 77%
    22:00 +8°C° 0 mm 2 mps 751 mmHg 78%
    23:00 +7°C° 0 mm 2 mps 751 mmHg 79%

    2 June, Tuesday

    Time Temperature Precipitation Wind Pressure Humidity
    00:00 +7°C° 0 mm 1 mps 751 mmHg 82%
    01:00 +7°C° 0 mm 1 mps 750 mmHg 84%
    02:00 +6°C° 0 mm 1 mps 750 mmHg 86%
    03:00 +6°C° 0 mm 1 mps 750 mmHg 86%
    04:00 +6°C° 0 mm 1 mps 750 mmHg 86%
    05:00 +6°C° 0 mm 2 mps 750 mmHg 86%
    06:00 +8°C° 0 mm 2 mps 750 mmHg 78%
    07:00 +10°C° 0 mm 2 mps 750 mmHg 71%
    08:00 +13°C° 0 mm 2 mps 750 mmHg 64%
    09:00 +14°C° 0 mm 2 mps 750 mmHg 60%
    10:00 +14°C° 0 mm 3 mps 750 mmHg 56%
    11:00 +14°C° 0 mm 3 mps 750 mmHg 52%
    12:00 +16°C° 0 mm 3 mps 750 mmHg 52%
    13:00 +16°C° 0 mm 3 mps 750 mmHg 52%
    14:00 +16°C° 0 mm 3 mps 749 mmHg 52%
    15:00 +16°C° 0.1 mm 3 mps 749 mmHg 54%
    16:00 +16°C° 0.1 mm 3 mps 749 mmHg 56%
    17:00 +16°C° 0.1 mm 3 mps 749 mmHg 58%
    18:00 +14°C° 0 mm 2 mps 749 mmHg 64%
    19:00 +13°C° 0 mm 2 mps 749 mmHg 70%
    20:00 +11°C° 0 mm 1 mps 748 mmHg 77%
    21:00 +10°C° 0 mm 1 mps 749 mmHg 79%
    22:00 +9°C° 0 mm 1 mps 749 mmHg 81%
    23:00 +8°C° 0 mm 1 mps 749 mmHg 83%

    3 June, Wednesday

    Time Temperature Precipitation Wind Pressure Humidity
    00:00 +8°C° 0 mm 1 mps 749 mmHg 84%
    01:00 +7°C° 0 mm 1 mps 749 mmHg 85%
    02:00 +7°C° 0 mm 1 mps 748 mmHg 86%
    03:00 +7°C° 0 mm 1 mps 748 mmHg 86%
    04:00 +8°C° 0 mm 1 mps 748 mmHg 86%
    05:00 +8°C° 0 mm 1 mps 748 mmHg 86%
    06:00 +10°C° 0 mm 1 mps 748 mmHg 78%
    07:00 +12°C° 0 mm 1 mps 748 mmHg 71%
    08:00 +15°C° 0 mm 1 mps 748 mmHg 63%
    09:00 +16°C° 0 mm 1 mps 748 mmHg 57%
    10:00 +18°C° 0 mm 1 mps 748 mmHg 52%
    11:00 +19°C° 0 mm 1 mps 748 mmHg 46%
    12:00 +19°C° 0 mm 1 mps 747 mmHg 47%
    13:00 +19°C° 0 mm 1 mps 747 mmHg 48%
    14:00 +17°C° 0 mm 0 mps 747 mmHg 48%
    15:00 +18°C° 0 mm 1 mps 747 mmHg 51%
    16:00 +18°C° 0 mm 1 mps 746 mmHg 53%
    17:00 +18°C° 0 mm 1 mps 746 mmHg 56%
    18:00 +16°C° 0 mm 1 mps 746 mmHg 62%
    19:00 +13°C° 0 mm 0 mps 746 mmHg 67%
    20:00 +11°C° 0 mm 0 mps 745 mmHg 73%
    21:00 +12°C° 0 mm 1 mps 746 mmHg 75%
    22:00 +11°C° 0 mm 1 mps 746 mmHg 76%
    23:00 +10°C° 0 mm 1 mps 746 mmHg 78%
    Show more